| time (UTC) | temp F | wind direction | speed MPH | gust MPH | rain 1hr in | rain 24hr in | rain mn in | humidity % | barometer mb |
| 20260905043803 | 61 | 225 | 8.0 | 8.0 | 0.00 | 0.00 | 0.00 | 53 | 1029.1 |
| 20260905042803 | 61 | 225 | 7.0 | 8.0 | 0.00 | 0.00 | 0.00 | 52 | 1029.1 |
| 20260905042306 | 61 | 225 | 8.0 | 10.0 | 0.00 | 0.00 | 0.00 | 53 | 1029.1 |
| 20260905041802 | 60 | 225 | 9.0 | 12.0 | 0.00 | 0.00 | 0.00 | 53 | 1029.1 |
| 20260905041302 | 61 | 225 | 8.0 | 12.0 | 0.00 | 0.00 | 0.00 | 52 | 1029.1 |
| 20260905040802 | 61 | 225 | 9.0 | 10.0 | 0.00 | 0.00 | 0.00 | 51 | 1029.4 |
| 20260905040302 | 61 | 245 | 5.0 | 8.0 | 0.00 | 0.00 | 0.00 | 49 | 1029.2 |
| 20260905035306 | 61 | 225 | 7.0 | 10.0 | 0.00 | 0.00 | 0.00 | 49 | 1029.4 |
| 20260905034802 | 62 | 225 | 7.0 | 9.0 | 0.00 | 0.00 | 0.00 | 48 | 1029.4 |
| 20260905034303 | 63 | 225 | 7.0 | 10.0 | 0.00 | 0.00 | 0.00 | 46 | 1029.3 |
| 20260905033303 | 62 | 225 | 7.0 | 9.0 | 0.00 | 0.00 | 0.00 | 48 | 1029.1 |
| 20260905032802 | 61 | 225 | 8.0 | 10.0 | 0.00 | 0.00 | 0.00 | 50 | 1029.1 |
| 20260905032306 | 61 | 225 | 6.0 | 8.0 | 0.00 | 0.00 | 0.00 | 51 | 1029.1 |
| 20260905031803 | 62 | 225 | 6.0 | 7.0 | 0.00 | 0.00 | 0.00 | 51 | 1029.1 |
| 20260905031302 | 62 | 202 | 5.0 | 9.0 | 0.00 | 0.00 | 0.00 | 51 | 1029.1 |
| 20260905030302 | 63 | 135 | 5.0 | 8.0 | 0.00 | 0.00 | 0.00 | 49 | 1029.1 |
| 20260905025802 | 63 | 135 | 3.0 | 7.0 | 0.00 | 0.00 | 0.00 | 48 | 1029.1 |
| 20260905025306 | 63 | 129 | 3.0 | 6.0 | 0.00 | 0.00 | 0.00 | 47 | 1029.1 |
| 20260905024803 | 64 | 191 | 5.0 | 6.0 | 0.00 | 0.00 | 0.00 | 47 | 1028.9 |
| 20260905023803 | 63 | 133 | 7.0 | 10.0 | 0.00 | 0.00 | 0.00 | 47 | 1028.7 |
| 20260905023303 | 63 | 138 | 3.0 | 9.0 | 0.00 | 0.00 | 0.00 | 46 | 1028.7 |
| 20260905022804 | 64 | 90 | 0.0 | 0.0 | 0.00 | 0.00 | 0.00 | 45 | 1028.6 |
| 20260905022305 | 65 | 90 | 0.0 | 3.0 | 0.00 | 0.00 | 0.00 | 44 | 1028.6 |
| 20260905021802 | 66 | 225 | 5.0 | 7.0 | 0.00 | 0.00 | 0.00 | 44 | 1028.4 |
| 20260905021303 | 67 | 224 | 1.0 | 3.0 | 0.00 | 0.00 | 0.00 | 44 | 1028.4 |
| 20260905020803 | 67 | 180 | 5.0 | 7.0 | 0.00 | 0.00 | 0.00 | 43 | 1028.4 |
| 20260905020303 | 68 | 196 | 4.0 | 7.0 | 0.00 | 0.00 | 0.00 | 43 | 1028.4 |
| 20260905015306 | 68 | 180 | 8.0 | 12.0 | 0.00 | 0.00 | 0.00 | 42 | 1028.4 |
| 20260905014803 | 68 | 180 | 8.0 | 15.0 | 0.00 | 0.00 | 0.00 | 42 | 1028.4 |
| 20260905014302 | 68 | 152 | 14.0 | 18.0 | 0.00 | 0.00 | 0.00 | 44 | 1028.4 |
| 20260905013803 | 68 | 140 | 10.0 | 17.0 | 0.00 | 0.00 | 0.00 | 44 | 1028.4 |
| 20260905013304 | 68 | 114 | 7.0 | 10.0 | 0.00 | 0.00 | 0.00 | 43 | 1028.4 |
| 20260905012803 | 68 | 113 | 6.0 | 10.0 | 0.00 | 0.00 | 0.00 | 42 | 1028.4 |
| 20260905012306 | 68 | 180 | 5.0 | 7.0 | 0.00 | 0.00 | 0.00 | 42 | 1028.4 |
| 20260905011803 | 68 | 225 | 6.0 | 7.0 | 0.00 | 0.00 | 0.00 | 42 | 1028.2 |
| 20260905005803 | 70 | 247 | 6.0 | 8.0 | 0.00 | 0.00 | 0.00 | 38 | 1028.1 |
| 20260905005306 | 71 | 247 | 6.0 | 7.0 | 0.00 | 0.00 | 0.00 | 37 | 1028.1 |
| 20260905004803 | 72 | 247 | 4.0 | 6.0 | 0.00 | 0.00 | 0.00 | 35 | 1027.9 |
| 20260905004304 | 73 | 247 | 5.0 | 5.0 | 0.00 | 0.00 | 0.00 | 34 | 1028.1 |
| 20260905003803 | 73 | 270 | 5.0 | 8.0 | 0.00 | 0.00 | 0.00 | 33 | 1028.1 |
| 20260905003303 | 74 | 270 | 6.0 | 10.0 | 0.00 | 0.00 | 0.00 | 33 | 1027.9 |
| 20260905002803 | 74 | 270 | 6.0 | 8.0 | 0.00 | 0.00 | 0.00 | 33 | 1027.9 |
| 20260905002305 | 74 | 270 | 7.0 | 10.0 | 0.00 | 0.00 | 0.00 | 33 | 1027.9 |
| 20260905001803 | 73 | 264 | 6.0 | 8.0 | 0.00 | 0.00 | 0.00 | 33 | 1028.1 |
| 20260905001303 | 74 | 304 | 4.0 | 8.0 | 0.00 | 0.00 | 0.00 | 33 | 1028.1 |
| 20260905000804 | 75 | 280 | 8.0 | 13.0 | 0.00 | 0.00 | 0.00 | 33 | 1028.1 |
| 20260905000303 | 76 | 157 | 2.0 | 5.0 | 0.00 | 0.00 | 0.00 | 32 | 1027.9 |
| 20260904235306 | 77 | 157 | 4.0 | 8.0 | 0.00 | 0.00 | 0.00 | 32 | 1027.7 |
| 20260904234803 | 77 | 245 | 3.0 | 5.0 | 0.00 | 0.00 | 0.00 | 32 | 1027.7 |
| 20260904233803 | 76 | 45 | 2.0 | 5.0 | 0.00 | 0.00 | 0.00 | 32 | 1027.7 |
| 20260904233303 | 75 | 292 | 6.0 | 10.0 | 0.00 | 0.00 | 0.00 | 32 | 1027.7 |
| 20260904232803 | 75 | 273 | 6.0 | 9.0 | 0.00 | 0.00 | 0.00 | 32 | 1027.7 |
| 20260904231803 | 75 | 234 | 7.0 | 10.0 | 0.00 | 0.00 | 0.00 | 32 | 1027.7 |
| 20260904225803 | 76 | 315 | 4.0 | 7.0 | 0.00 | 0.00 | 0.00 | 31 | 1027.9 |
| 20260904225305 | 76 | 334 | 1.0 | 3.0 | 0.00 | 0.00 | 0.00 | 31 | 1027.9 |
| 20260904224803 | 76 | 56 | 2.0 | 10.0 | 0.00 | 0.00 | 0.00 | 31 | 1027.7 |
| 20260904224303 | 77 | 277 | 6.0 | 9.0 | 0.00 | 0.00 | 0.00 | 31 | 1027.7 |
| 20260904223803 | 76 | 243 | 1.0 | 6.0 | 0.00 | 0.00 | 0.00 | 32 | 1027.7 |
| 20260904223303 | 75 | 90 | 2.0 | 6.0 | 0.00 | 0.00 | 0.00 | 32 | 1027.7 |
| 20260904222306 | 75 | 315 | 7.0 | 12.0 | 0.00 | 0.00 | 0.00 | 32 | 1028.1 |
| 20260904221802 | 76 | 343 | 5.0 | 10.0 | 0.00 | 0.00 | 0.00 | 32 | 1027.9 |
| 20260904221303 | 77 | 330 | 6.0 | 12.0 | 0.00 | 0.00 | 0.00 | 31 | 1028.1 |
| 20260904220803 | 78 | 358 | 6.0 | 14.0 | 0.00 | 0.00 | 0.00 | 30 | 1027.9 |
| 20260904220302 | 78 | 137 | 5.0 | 9.0 | 0.00 | 0.00 | 0.00 | 30 | 1027.9 |
| 20260904215803 | 78 | 84 | 3.0 | 9.0 | 0.00 | 0.00 | 0.00 | 31 | 1028.1 |
| 20260904215305 | 77 | 205 | 5.0 | 8.0 | 0.00 | 0.00 | 0.00 | 32 | 1028.2 |
| 20260904214804 | 76 | 169 | 5.0 | 8.0 | 0.00 | 0.00 | 0.00 | 32 | 1028.3 |
| 20260904214302 | 76 | 75 | 6.0 | 9.0 | 0.00 | 0.00 | 0.00 | 32 | 1028.1 |
| 20260904213803 | 76 | 209 | 6.0 | 13.0 | 0.00 | 0.00 | 0.00 | 33 | 1028.4 |
| 20260904212306 | 75 | 195 | 5.0 | 9.0 | 0.00 | 0.00 | 0.00 | 33 | 1028.4 |
| 20260904211803 | 75 | 116 | 1.0 | 8.0 | 0.00 | 0.00 | 0.00 | 33 | 1028.4 |
| 20260904211303 | 76 | 80 | 2.0 | 8.0 | 0.00 | 0.00 | 0.00 | 32 | 1028.4 |
| 20260904210303 | 76 | 144 | 10.0 | 15.0 | 0.00 | 0.00 | 0.00 | 32 | 1028.4 |
| 20260904205305 | 75 | 187 | 5.0 | 9.0 | 0.00 | 0.00 | 0.00 | 32 | 1028.6 |
| 20260904204803 | 74 | 180 | 7.0 | 12.0 | 0.00 | 0.00 | 0.00 | 33 | 1028.6 |
| 20260904203803 | 73 | 228 | 9.0 | 16.0 | 0.00 | 0.00 | 0.00 | 35 | 1028.4 |
| 20260904203304 | 73 | 220 | 7.0 | 13.0 | 0.00 | 0.00 | 0.00 | 35 | 1028.6 |
| 20260904202803 | 74 | 270 | 11.0 | 18.0 | 0.00 | 0.00 | 0.00 | 35 | 1028.7 |
| 20260904202306 | 75 | 269 | 14.0 | 21.0 | 0.00 | 0.00 | 0.00 | 34 | 1028.7 |
| 20260904201803 | 74 | 180 | 7.0 | 14.0 | 0.00 | 0.00 | 0.00 | 34 | 1028.7 |
| 20260904201303 | 74 | 256 | 7.0 | 18.0 | 0.00 | 0.00 | 0.00 | 34 | 1028.6 |
| 20260904200303 | 75 | 317 | 9.0 | 16.0 | 0.00 | 0.00 | 0.00 | 33 | 1028.7 |
| 20260904195803 | 76 | 272 | 7.0 | 23.0 | 0.00 | 0.00 | 0.00 | 32 | 1028.7 |
| 20260904195305 | 76 | 319 | 9.0 | 14.0 | 0.00 | 0.00 | 0.00 | 32 | 1028.9 |
| 20260904194803 | 76 | 183 | 9.0 | 14.0 | 0.00 | 0.00 | 0.00 | 32 | 1028.9 |
| 20260904194303 | 75 | 184 | 7.0 | 18.0 | 0.00 | 0.00 | 0.00 | 33 | 1028.9 |
| 20260904193303 | 76 | 236 | 14.0 | 25.0 | 0.00 | 0.00 | 0.00 | 32 | 1028.7 |
| 20260904192802 | 75 | 135 | 4.0 | 12.0 | 0.00 | 0.00 | 0.00 | 33 | 1028.9 |
| 20260904192306 | 75 | 240 | 12.0 | 18.0 | 0.00 | 0.00 | 0.00 | 33 | 1029.1 |
| 20260904191802 | 76 | 271 | 12.0 | 21.0 | 0.00 | 0.00 | 0.00 | 33 | 1028.9 |
| 20260904191303 | 76 | 199 | 5.0 | 13.0 | 0.00 | 0.00 | 0.00 | 33 | 1029.1 |
| 20260904190803 | 76 | 194 | 5.0 | 10.0 | 0.00 | 0.00 | 0.00 | 33 | 1029.1 |
| 20260904190303 | 76 | 331 | 7.0 | 14.0 | 0.00 | 0.00 | 0.00 | 33 | 1029.1 |
| 20260904185804 | 75 | 184 | 6.0 | 13.0 | 0.00 | 0.00 | 0.00 | 34 | 1029.1 |
| 20260904185306 | 74 | 172 | 7.0 | 13.0 | 0.00 | 0.00 | 0.00 | 35 | 1029.1 |
| 20260904184803 | 74 | 325 | 10.0 | 20.0 | 0.00 | 0.00 | 0.00 | 35 | 1029.1 |
| 20260904184303 | 74 | 299 | 9.0 | 12.0 | 0.00 | 0.00 | 0.00 | 35 | 1029.1 |
| 20260904183303 | 73 | 264 | 6.0 | 16.0 | 0.00 | 0.00 | 0.00 | 36 | 1029.1 |
| 20260904182803 | 73 | 270 | 10.0 | 22.0 | 0.00 | 0.00 | 0.00 | 36 | 1029.2 |
| 20260904182306 | 73 | 227 | 10.0 | 17.0 | 0.00 | 0.00 | 0.00 | 37 | 1029.4 |
| 20260904181803 | 73 | 253 | 12.0 | 21.0 | 0.00 | 0.00 | 0.00 | 36 | 1029.4 |
| 20260904181303 | 74 | 271 | 13.0 | 21.0 | 0.00 | 0.00 | 0.00 | 36 | 1029.3 |
| 20260904180803 | 76 | 243 | 14.0 | 24.0 | 0.00 | 0.00 | 0.00 | 35 | 1029.3 |
| 20260904180303 | 75 | 225 | 3.0 | 12.0 | 0.00 | 0.00 | 0.00 | 36 | 1029.4 |
| 20260904175305 | 74 | 191 | 2.0 | 8.0 | 0.00 | 0.00 | 0.00 | 37 | 1029.4 |
| 20260904174803 | 73 | 90 | 7.0 | 22.0 | 0.00 | 0.00 | 0.00 | 37 | 1029.4 |
| 20260904174304 | 72 | 265 | 7.0 | 14.0 | 0.00 | 0.00 | 0.00 | 38 | 1029.4 |
| 20260904173802 | 73 | 278 | 7.0 | 18.0 | 0.00 | 0.00 | 0.00 | 38 | 1029.6 |
| 20260904172803 | 73 | 54 | 5.0 | 13.0 | 0.00 | 0.00 | 0.00 | 38 | 1029.4 |
| 20260904172305 | 73 | 294 | 8.0 | 13.0 | 0.00 | 0.00 | 0.00 | 38 | 1029.6 |
| 20260904171803 | 73 | 216 | 3.0 | 15.0 | 0.00 | 0.00 | 0.00 | 38 | 1029.8 |
| 20260904171302 | 72 | 236 | 6.0 | 12.0 | 0.00 | 0.00 | 0.00 | 39 | 1029.6 |
| 20260904170803 | 72 | 269 | 6.0 | 12.0 | 0.00 | 0.00 | 0.00 | 39 | 1029.6 |
| 20260904170304 | 72 | 188 | 8.0 | 21.0 | 0.00 | 0.00 | 0.00 | 39 | 1029.8 |
| 20260904165305 | 72 | 198 | 10.0 | 16.0 | 0.00 | 0.00 | 0.00 | 39 | 1029.8 |
| 20260904164803 | 73 | 234 | 7.0 | 20.0 | 0.00 | 0.00 | 0.00 | 38 | 1029.6 |
| 20260904164304 | 75 | 225 | 12.0 | 26.0 | 0.00 | 0.00 | 0.00 | 36 | 1029.8 |
| 20260904163803 | 75 | 219 | 8.0 | 20.0 | 0.00 | 0.00 | 0.00 | 36 | 1029.4 |
| 20260904163303 | 75 | 167 | 10.0 | 17.0 | 0.00 | 0.00 | 0.00 | 36 | 1029.4 |
| 20260904162803 | 73 | 211 | 6.0 | 14.0 | 0.00 | 0.00 | 0.00 | 38 | 1029.4 |
| 20260904162306 | 72 | 117 | 3.0 | 13.0 | 0.00 | 0.00 | 0.00 | 39 | 1029.4 |
| 20260904161303 | 72 | 322 | 5.0 | 8.0 | 0.00 | 0.00 | 0.00 | 39 | 1029.4 |
| 20260904160803 | 72 | 244 | 2.0 | 13.0 | 0.00 | 0.00 | 0.00 | 39 | 1029.4 |
| 20260904160303 | 72 | 38 | 4.0 | 10.0 | 0.00 | 0.00 | 0.00 | 40 | 1029.3 |
| 20260904155804 | 72 | 29 | 6.0 | 14.0 | 0.00 | 0.00 | 0.00 | 40 | 1029.1 |
| 20260904155306 | 72 | 316 | 5.0 | 8.0 | 0.00 | 0.00 | 0.00 | 40 | 1029.1 |
| 20260904154803 | 72 | 190 | 2.0 | 5.0 | 0.00 | 0.00 | 0.00 | 40 | 1029.3 |
| 20260904153803 | 72 | 66 | 6.0 | 13.0 | 0.00 | 0.00 | 0.00 | 40 | 1029.1 |
| 20260904152802 | 70 | 0 | 8.0 | 12.0 | 0.00 | 0.00 | 0.00 | 41 | 1029.1 |
| 20260904152306 | 70 | 44 | 7.0 | 12.0 | 0.00 | 0.00 | 0.00 | 42 | 1029.1 |
| 20260904151804 | 69 | 45 | 3.0 | 10.0 | 0.00 | 0.00 | 0.00 | 43 | 1029.1 |
| 20260904151303 | 69 | 83 | 6.0 | 10.0 | 0.00 | 0.00 | 0.00 | 44 | 1029.1 |
| 20260904150803 | 68 | 45 | 7.0 | 10.0 | 0.00 | 0.00 | 0.00 | 45 | 1029.1 |
| 20260904150303 | 67 | 90 | 7.0 | 10.0 | 0.00 | 0.00 | 0.00 | 46 | 1029.1 |
| 20260904145802 | 67 | 55 | 8.0 | 10.0 | 0.00 | 0.00 | 0.00 | 47 | 1029.1 |
| 20260904145305 | 66 | 90 | 9.0 | 13.0 | 0.00 | 0.00 | 0.00 | 47 | 1029.1 |
| 20260904144804 | 66 | 79 | 7.0 | 10.0 | 0.00 | 0.00 | 0.00 | 49 | 1029.1 |
| 20260904144303 | 65 | 90 | 5.0 | 10.0 | 0.00 | 0.00 | 0.00 | 49 | 1029.1 |
| 20260904143803 | 65 | 90 | 8.0 | 12.0 | 0.00 | 0.00 | 0.00 | 49 | 1029.1 |
| 20260904143303 | 64 | 99 | 8.0 | 12.0 | 0.00 | 0.00 | 0.00 | 50 | 1029.1 |
| 20260904142803 | 64 | 90 | 6.0 | 9.0 | 0.00 | 0.00 | 0.00 | 50 | 1029.1 |
| 20260904141803 | 64 | 90 | 7.0 | 10.0 | 0.00 | 0.00 | 0.00 | 49 | 1029.1 |
| 20260904141303 | 64 | 79 | 4.0 | 6.0 | 0.00 | 0.00 | 0.00 | 49 | 1029.1 |
| 20260904140803 | 64 | 90 | 3.0 | 5.0 | 0.00 | 0.00 | 0.00 | 48 | 1029.0 |
| 20260904140303 | 64 | 90 | 3.0 | 6.0 | 0.00 | 0.00 | 0.00 | 47 | 1028.7 |
| 20260904135803 | 64 | 83 | 5.0 | 7.0 | 0.00 | 0.00 | 0.00 | 47 | 1028.7 |
| 20260904135306 | 63 | 337 | 2.0 | 5.0 | 0.00 | 0.00 | 0.00 | 48 | 1028.7 |
| 20260904134803 | 62 | 122 | 5.0 | 7.0 | 0.00 | 0.00 | 0.00 | 49 | 1028.7 |
| 20260904134303 | 62 | 112 | 3.0 | 6.0 | 0.00 | 0.00 | 0.00 | 50 | 1028.5 |
| 20260904133803 | 61 | 135 | 4.0 | 7.0 | 0.00 | 0.00 | 0.00 | 51 | 1028.4 |
| 20260904133304 | 61 | 90 | 5.0 | 5.0 | 0.00 | 0.00 | 0.00 | 51 | 1028.4 |
| 20260904132306 | 60 | 90 | 3.0 | 7.0 | 0.00 | 0.00 | 0.00 | 52 | 1028.6 |
| 20260904131804 | 60 | 90 | 3.0 | 6.0 | 0.00 | 0.00 | 0.00 | 52 | 1028.4 |
| 20260904131304 | 60 | 45 | 3.0 | 5.0 | 0.00 | 0.00 | 0.00 | 51 | 1028.4 |
| 20260904130803 | 60 | 180 | 0.0 | 1.0 | 0.00 | 0.00 | 0.00 | 51 | 1028.4 |
| 20260904130303 | 60 | 180 | 1.0 | 3.0 | 0.00 | 0.00 | 0.00 | 50 | 1028.4 |
| 20260904125803 | 61 | 180 | 2.0 | 9.0 | 0.00 | 0.00 | 0.00 | 49 | 1028.1 |
| 20260904125305 | 62 | 10 | 6.0 | 9.0 | 0.00 | 0.00 | 0.00 | 49 | 1028.1 |
| 20260904124804 | 61 | 52 | 8.0 | 13.0 | 0.00 | 0.00 | 0.00 | 51 | 1028.1 |
| 20260904124303 | 60 | 315 | 5.0 | 7.0 | 0.00 | 0.00 | 0.00 | 52 | 1028.1 |
| 20260904123803 | 59 | 281 | 1.0 | 3.0 | 0.00 | 0.00 | 0.00 | 52 | 1028.1 |
| 20260904123304 | 59 | 270 | 0.0 | 3.0 | 0.00 | 0.00 | 0.00 | 52 | 1028.1 |
| 20260904122803 | 59 | 315 | 1.0 | 3.0 | 0.00 | 0.00 | 0.00 | 52 | 1028.1 |
| 20260904121803 | 60 | 180 | 3.0 | 5.0 | 0.00 | 0.00 | 0.00 | 51 | 1028.1 |
| 20260904121303 | 60 | 0 | 2.0 | 3.0 | 0.00 | 0.00 | 0.00 | 50 | 1028.0 |
| 20260904120804 | 61 | 225 | 1.0 | 3.0 | 0.00 | 0.00 | 0.00 | 50 | 1028.1 |
| 20260904120303 | 62 | 315 | 3.0 | 3.0 | 0.00 | 0.00 | 0.00 | 49 | 1027.7 |
| 20260904115306 | 62 | 272 | 3.0 | 5.0 | 0.00 | 0.00 | 0.00 | 49 | 1027.7 |
| 20260904114803 | 61 | 202 | 1.0 | 3.0 | 0.00 | 0.00 | 0.00 | 49 | 1027.7 |
| 20260904114304 | 61 | 0 | 5.0 | 8.0 | 0.00 | 0.00 | 0.00 | 49 | 1027.7 |
| 20260904113803 | 61 | 225 | 2.0 | 8.0 | 0.00 | 0.00 | 0.00 | 50 | 1027.7 |
| 20260904112803 | 59 | 225 | 1.0 | 14.0 | 0.00 | 0.00 | 0.00 | 51 | 1027.7 |
| 20260904112305 | 59 | 205 | 5.0 | 10.0 | 0.00 | 0.00 | 0.00 | 50 | 1027.7 |
| 20260904111803 | 59 | 225 | 3.0 | 6.0 | 0.00 | 0.00 | 0.00 | 50 | 1027.7 |
| 20260904111303 | 60 | 225 | 5.0 | 6.0 | 0.00 | 0.00 | 0.00 | 48 | 1027.7 |
| 20260904110803 | 60 | 225 | 2.0 | 3.0 | 0.00 | 0.00 | 0.00 | 48 | 1027.7 |
| 20260904110303 | 59 | 225 | 2.0 | 5.0 | 0.00 | 0.00 | 0.00 | 48 | 1027.7 |
| 20260904105804 | 59 | 225 | 5.0 | 7.0 | 0.00 | 0.00 | 0.00 | 49 | 1027.7 |
| 20260904105306 | 59 | 270 | 2.0 | 5.0 | 0.00 | 0.00 | 0.00 | 48 | 1027.7 |
| 20260904104303 | 60 | 225 | 2.0 | 6.0 | 0.00 | 0.00 | 0.00 | 47 | 1027.7 |
| 20260904103803 | 60 | 270 | 5.0 | 8.0 | 0.00 | 0.00 | 0.00 | 47 | 1027.7 |
| 20260904103303 | 61 | 225 | 7.0 | 8.0 | 0.00 | 0.00 | 0.00 | 46 | 1027.7 |
| 20260904102803 | 62 | 270 | 4.0 | 8.0 | 0.00 | 0.00 | 0.00 | 45 | 1027.4 |
| 20260904102306 | 62 | 281 | 8.0 | 12.0 | 0.00 | 0.00 | 0.00 | 45 | 1027.4 |
| 20260904101804 | 62 | 332 | 5.0 | 7.0 | 0.00 | 0.00 | 0.00 | 44 | 1027.4 |
| 20260904100804 | 60 | 271 | 7.0 | 12.0 | 0.00 | 0.00 | 0.00 | 47 | 1027.4 |
| 20260904100304 | 58 | 225 | 6.0 | 9.0 | 0.00 | 0.00 | 0.00 | 49 | 1027.4 |
| 20260904095803 | 59 | 228 | 6.0 | 8.0 | 0.00 | 0.00 | 0.00 | 48 | 1027.4 |
| 20260904095306 | 60 | 270 | 3.0 | 8.0 | 0.00 | 0.00 | 0.00 | 47 | 1027.4 |
| 20260904094804 | 60 | 175 | 3.0 | 10.0 | 0.00 | 0.00 | 0.00 | 46 | 1027.4 |
| 20260904094303 | 59 | 225 | 7.0 | 9.0 | 0.00 | 0.00 | 0.00 | 47 | 1027.4 |
| 20260904093803 | 60 | 180 | 7.0 | 9.0 | 0.00 | 0.00 | 0.00 | 46 | 1027.4 |
| 20260904093303 | 62 | 225 | 6.0 | 10.0 | 0.00 | 0.00 | 0.00 | 43 | 1027.1 |
| 20260904092803 | 63 | 271 | 9.0 | 13.0 | 0.00 | 0.00 | 0.00 | 43 | 1027.1 |
| 20260904091804 | 62 | 295 | 10.0 | 16.0 | 0.00 | 0.00 | 0.00 | 44 | 1027.0 |
| 20260904091303 | 61 | 328 | 7.0 | 13.0 | 0.00 | 0.00 | 0.00 | 44 | 1027.1 |
| 20260904090803 | 60 | 325 | 6.0 | 9.0 | 0.00 | 0.00 | 0.00 | 45 | 1027.1 |
| 20260904090303 | 60 | 90 | 1.0 | 5.0 | 0.00 | 0.00 | 0.00 | 45 | 1027.1 |
| 20260904085803 | 61 | 135 | 3.0 | 3.0 | 0.00 | 0.00 | 0.00 | 44 | 1027.4 |
| 20260904085305 | 61 | 45 | 1.0 | 5.0 | 0.00 | 0.00 | 0.00 | 44 | 1027.4 |
| 20260904084804 | 62 | 104 | 3.0 | 6.0 | 0.00 | 0.00 | 0.00 | 43 | 1027.1 |
| 20260904084303 | 62 | 318 | 5.0 | 6.0 | 0.00 | 0.00 | 0.00 | 44 | 1027.1 |
| 20260904083303 | 63 | 270 | 5.0 | 7.0 | 0.00 | 0.00 | 0.00 | 42 | 1027.4 |
| 20260904082803 | 64 | 37 | 3.0 | 5.0 | 0.00 | 0.00 | 0.00 | 41 | 1027.3 |
| 20260904082305 | 63 | 338 | 4.0 | 8.0 | 0.00 | 0.00 | 0.00 | 41 | 1027.4 |
| 20260904081803 | 63 | 358 | 6.0 | 9.0 | 0.00 | 0.00 | 0.00 | 41 | 1027.4 |
| 20260904081304 | 64 | 270 | 2.0 | 6.0 | 0.00 | 0.00 | 0.00 | 40 | 1027.4 |
| 20260904080803 | 65 | 315 | 0.0 | 3.0 | 0.00 | 0.00 | 0.00 | 39 | 1027.4 |
| 20260904080303 | 65 | 90 | 1.0 | 8.0 | 0.00 | 0.00 | 0.00 | 39 | 1027.4 |
| 20260904075306 | 65 | 126 | 6.0 | 18.0 | 0.00 | 0.00 | 0.00 | 39 | 1027.4 |
| 20260904074804 | 66 | 94 | 8.0 | 14.0 | 0.00 | 0.00 | 0.00 | 38 | 1027.1 |
| 20260904074303 | 66 | 117 | 7.0 | 14.0 | 0.00 | 0.00 | 0.00 | 38 | 1027.4 |
| 20260904073804 | 65 | 52 | 7.0 | 31.0 | 0.00 | 0.00 | 0.00 | 39 | 1027.1 |
| 20260904073303 | 64 | 189 | 13.0 | 24.0 | 0.00 | 0.00 | 0.00 | 39 | 1027.1 |
| 20260904072803 | 64 | 90 | 10.0 | 16.0 | 0.00 | 0.00 | 0.00 | 39 | 1027.1 |
| 20260904072306 | 64 | 87 | 5.0 | 10.0 | 0.00 | 0.00 | 0.00 | 39 | 1027.4 |
| 20260904071803 | 64 | 168 | 6.0 | 10.0 | 0.00 | 0.00 | 0.00 | 38 | 1027.4 |
| 20260904071303 | 64 | 7 | 6.0 | 10.0 | 0.00 | 0.00 | 0.00 | 39 | 1027.4 |
| 20260904070804 | 64 | 135 | 7.0 | 12.0 | 0.00 | 0.00 | 0.00 | 39 | 1027.4 |
| 20260904065803 | 65 | 90 | 10.0 | 13.0 | 0.00 | 0.00 | 0.00 | 37 | 1027.4 |
| 20260904065306 | 64 | 122 | 4.0 | 10.0 | 0.00 | 0.00 | 0.00 | 38 | 1027.4 |
| 20260904064803 | 64 | 270 | 5.0 | 10.0 | 0.00 | 0.00 | 0.00 | 37 | 1027.7 |
| 20260904064303 | 64 | 132 | 7.0 | 12.0 | 0.00 | 0.00 | 0.00 | 37 | 1027.4 |
| 20260904063804 | 63 | 316 | 7.0 | 20.0 | 0.00 | 0.00 | 0.00 | 38 | 1027.7 |
| 20260904063303 | 62 | 135 | 3.0 | 6.0 | 0.00 | 0.00 | 0.00 | 39 | 1027.7 |
| 20260904062803 | 62 | 224 | 5.0 | 6.0 | 0.00 | 0.00 | 0.00 | 38 | 1027.7 |
| 20260904062306 | 62 | 180 | 8.0 | 13.0 | 0.00 | 0.00 | 0.00 | 38 | 1027.7 |
| 20260904061803 | 61 | 135 | 7.0 | 9.0 | 0.00 | 0.00 | 0.00 | 39 | 1027.7 |
| 20260904061303 | 62 | 270 | 2.0 | 8.0 | 0.00 | 0.00 | 0.00 | 39 | 1027.5 |
| 20260904060857 | 62 | 225 | 5.0 | 10.0 | 0.00 | 0.00 | 0.00 | 38 | 1027.7 |
| 20260904060303 | 63 | 248 | 7.0 | 12.0 | 0.00 | 0.00 | 0.00 | 37 | 1027.4 |
| 20260904055803 | 64 | 225 | 7.0 | 8.0 | 0.00 | 0.00 | 0.00 | 36 | 1027.4 |
| 20260904055306 | 65 | 270 | 1.0 | 6.0 | 0.00 | 0.00 | 0.00 | 35 | 1027.4 |
| 20260904054303 | 65 | 96 | 10.0 | 14.0 | 0.00 | 0.00 | 0.00 | 34 | 1027.4 |
| 20260904053803 | 65 | 90 | 6.0 | 10.0 | 0.00 | 0.00 | 0.00 | 34 | 1027.7 |
| 20260904052804 | 65 | 52 | 12.0 | 23.0 | 0.00 | 0.00 | 0.00 | 34 | 1027.4 |
| 20260904052306 | 66 | 324 | 9.0 | 21.0 | 0.00 | 0.00 | 0.00 | 34 | 1027.5 |
| 20260904051803 | 66 | 288 | 14.0 | 18.0 | 0.00 | 0.00 | 0.00 | 34 | 1027.4 |
| 20260904051303 | 66 | 267 | 11.0 | 17.0 | 0.00 | 0.00 | 0.00 | 34 | 1027.3 |
| 20260904050803 | 66 | 262 | 2.0 | 8.0 | 0.00 | 0.00 | 0.00 | 34 | 1027.4 |
| 20260904050303 | 65 | 186 | 9.0 | 21.0 | 0.00 | 0.00 | 0.00 | 34 | 1027.4 |
| 20260904045803 | 65 | 224 | 6.0 | 24.0 | 0.00 | 0.00 | 0.00 | 34 | 1027.4 |
| 20260904045306 | 65 | 257 | 5.0 | 9.0 | 0.00 | 0.00 | 0.00 | 34 | 1027.4 |
| 20260904044803 | 64 | 157 | 2.0 | 5.0 | 0.00 | 0.00 | 0.00 | 34 | 1027.7 |
| 20260904044304 | 64 | 343 | 6.0 | 15.0 | 0.00 | 0.00 | 0.00 | 35 | 1027.4 |